www.pogodaiklimat.ru

Погода и климат >> Архив погоды >> Россия >> Приморский край >> Находка


АРХИВ ПОГОДЫ в Находке

Время (UTC), дата Ветер
(напр.,м/с)
 
Видим.   Явления Облачность Т
(С)
Тd
(С)
f
(%)
Тe
(С)
Тes
(С)
Комфортность P
(гПа)
Po
(гПа)
Тmin
(С)
Tmax
(С)
R
(мм)
R24
(мм)
S
(см)
06 17.02 З 8 20 км ясно +0.2 -14.9 31 -6 -6 тепло 1015.1 1008.0
09 17.02 З 5
{13}
20 км ясно +0.5 -13.2 35 -4 -4 тепло 1016.4 1009.3 +0.7
12 17.02 СЗ 3 20 км ясно +0.3 -12.0 39 -3 -3 тепло 1017.8 1010.7
15 17.02 СЗ 4 20 км ясно +0.4 -15.6 29 -4 -4 тепло 1019.1 1012.0
18 17.02 СЗ 3 20 км ясно -1.8 -15.6 34 -6 -6 тепло 1021.9 1014.7
21 17.02 З 2
{11}
20 км ясно -1.7 -15.5 34 -5 -5 тепло 1021.4 1014.4 -1.8
00 18.02 В 1 20 км ясно -0.4 -14.3 34 -1 +2 тепло 1023.7 1016.7 -3.1
03 18.02 З 4 50 км ясно +3.4 -14.3 26 0 +5 тепло 1024.4 1017.3
06 18.02 ЮЗ 3 50 км 2 балла +4.8 -14.6 23 +2 +5 тепло 1023.0 1016.0
09 18.02 ЮЗ 3 20 км 3/0
[Cs]
+0.6 -11.4 40 -3 -3 тепло 1023.1 1016.0 +5.0
12 18.02 ЮЗ 1 20 км ясно -1.1 -5.1 74 -3 -3 тепло 1025.9 1018.7
15 18.02 С 1 20 км 6 баллов -2.4 -5.2 81 -5 -5 тепло 1024.5 1017.3
18 18.02 ЮВ 1 20 км 10 баллов -4.3 -5.7 90 -7 -7 тепло 1023.2 1016.0
21 18.02 В 1 20 км 10/0
[Cs]
-3.8 -6.1 84 -6 -6 тепло 1021.2 1014.1 -4.4
00 19.02 В 1 20 км 9/0
[Ac und]
-2.9 -6.7 75 -5 -4 тепло 1021.0 1013.9
03 19.02 СВ 2 20 км 10/0
[Ac As]
-0.1 -6.1 64 -3 -3 тепло 1019.1 1012.0
06 19.02 СЗ 1 20 км 10 баллов +2.9 -5.5 54 +2 +2 тепло 1017.7 1010.7
09 19.02 В 1 10 км слаб. снег 10/0
[As op]
+1.3 -3.8 69 -0 -0 тепло 1015.0 1008.0 +3.5 0.0
12 19.02 С 3 10 км слаб. снег 10/0
[As op]
+0.4 -0.2 96 -4 -4 тепло 1014.0 1007.1
15 19.02 СЗ 2 10 км снег 10/0
[As op]
+0.2 -0.4 96 -4 -4 тепло 1015.1 1008.0
18 19.02 С 1 10 км слаб. снег 10 баллов 0.0 -0.3 98 -2 -2 тепло 1016.4 1009.3
21 19.02 СВ 2 10 км слаб. снег 10/0
[As op]
-0.7 -0.9 99 -5 -5 тепло 1014.5 1007.5 -0.7 2
00 20.02 С 2 2000 м снег 10/0
[As op]
-0.4 -1.2 94 -4 -4 тепло 1016.8 1009.9 -0.8
03 20.02 СВ 2 2000 м слаб. снег 10/0
[As op]
-0.1 -0.7 96 -4 -4 тепло 1017.8 1010.7
06 20.02 В 1 10 км 10 баллов +1.3 +0.4 94 -1 -1 тепло 1017.7 1010.7
09 20.02 СЗ 3 20 км 3/0
[Cc]
+2.2 -5.9 55 -1 -1 тепло 1019.0 1012.0 +2.9 4
12 20.02 С 3 20 км 3/0
[Cc]
+1.3 -12.5 35 -2 -2 тепло 1021.8 1014.7
15 20.02 штиль 0 20 км 6/0
[Ci fib]
-1.1 -10.4 49 -2 -2 тепло 1023.2 1016.0
18 20.02 СЗ 5 20 км 7 баллов -0.3 -9.4 50 -6 -6 тепло 1023.1 1016.0
21 20.02 СВ 2 20 км 10/0
[Cs]
-3.6 -7.9 72 -7 -7 тепло 1022.2 1015.1 -4.4
00 21.02 В 1 4000 м дым 10/0
[Cs]
-3.8 -8.5 70 -6 -3 тепло 1022.9 1015.8 -6.3
03 21.02 З 4 4000 м дым 10 баллов +3.2 -6.5 49 -1 -1 тепло 1023.0 1016.0
06 21.02 З 5-11
{12}
20 км 10/0
[Cs]
+4.3 -9.1 37 0 0 тепло 1020.3 1013.3
09 21.02 З 3
{11}
20 км 3/0
[Cs]
+2.4 -8.9 43 -1 -1 тепло 1021.8 1014.7 +4.5
12 21.02 З 5 20 км ясно +1.2 -2.6 76 -4 -4 тепло 1021.8 1014.7
15 21.02 С 1 20 км ясно +1.0 -1.4 84 -1 -1 тепло 1021.8 1014.7
18 21.02 В 1 20 км 4 балла -3.8 -5.6 87 -6 -6 тепло 1021.9 1014.7
21 21.02 В 1 10 км 4/4 1000 м
[Sc]
-4.8 -6.5 88 -7 -7 тепло 1019.8 1012.7 -4.8
00 22.02 штиль 0 20 км 3/0
[Ac trans]
-2.9 -7.4 71 -4 -0 тепло 1020.6 1013.5 -6.0
03 22.02 В 2 20 км ясно +3.8 -7.6 43 +2 +10 опасность
простуды
1020.3 1013.3
06 22.02 С 5 50 км 2 балла +6.8 -12.4 24 +4 +5 тепло 1017.6 1010.7
09 22.02 З 5
{11}
20 км ясно +2.9 -10.3 37 -1 -1 тепло 1019.0 1012.0 +7.3
12 22.02 СЗ 3 20 км ясно +3.6 -12.8 29 +1 +1 тепло 1020.3 1013.3
15 22.02 СВ 1 20 км ясно -0.3 -7.8 57 -2 -2 тепло 1020.4 1013.3
18 22.02 штиль 0 20 км ясно -1.0 -10.4 49 -1 -1 тепло 1021.8 1014.7
21 22.02 С 3 20 км ясно -1.1 -8.9 55 -5 -5 тепло 1021.8 1014.7 -2.8
00 23.02 ЮВ 1 50 км ясно +1.0 -10.8 41 0 +4 тепло 1024.4 1017.3
03 23.02 В 1 50 км ясно +3.0 -11.7 33 +2 +12 опасность
простуды
1023.1 1016.0
06 23.02 СЗ 3 50 км ясно +5.4 -15.8 20 +3 +7 тепло 1021.7 1014.7
09 23.02 СЗ 2 50 км ясно +4.1 -16.8 20 +3 +3 тепло 1023.0 1016.0 +5.9
12 23.02 З 4
{10}
20 км ясно +0.5 -8.3 52 -4 -4 тепло 1021.8 1014.8
15 23.02 ЮЗ 1 20 км ясно -0.3 -6.9 61 -2 -2 тепло 1021.8 1014.7
18 23.02 штиль 0 20 км ясно -3.1 -6.9 75 -4 -4 тепло 1020.5 1013.3
21 23.02 штиль 0 20 км 10/0
[Cs]
-3.1 -6.5 77 -4 -4 тепло 1018.2 1011.1 -3.8
00 24.02 штиль 0 10 км дым 10/10 600 м
[Sc]
-1.0 -5.0 74 -2 -2 тепло 1017.1 1010.1
03 24.02 З 4 10 км дым 10 баллов +5.6 +0.2 68 +2 +2 тепло 1014.9 1008.0

 

Местоположение метеостанции Находка (Приморский край, Россия): широта 42.80 долгота 132.80 высота над уровнем моря 56 м.

В архиве по умолчанию представлена погода в Находке за последнюю неделю. Архивные данные за месяц целиком и за предыдущие месяцы, начиная с января 2011 года, Вы можете получить, выбрав интересующий диапазон дат из раскрывающегося списка и нажав кнопку "Ввод!".


*Определитесь, кто Вы:
робот инопланетянин человек

Внимание! Время в таблицах - всемирное. Для получения местного времени необходимо прибавить поправку, которая равна 10 ч.

Смотрите также архив погоды в соседних городах и на ближайших метеорологических станциях:

Погода в Партизанске (Приморский край, Россия) (42 км)
Погода на Мысе Назимова (Приморский край, Россия) (78 км)
Погода в Многоудобном (Приморский край, Россия) (79 км)
Погода в Владивостоке (Приморский край, Россия) (81 км)
Погода в Преображении (Приморский край, Россия) (90 км)
Погода в Лазо (Приморский край, Россия) (105 км)
Погода в Барабаше (Приморский край, Россия) (122 км)
Погода в Анучино (Приморский край, Россия) (131 км)
Погода в Гамове (Приморский край, Россия) (132 км)
Погода в Тимирязевском (Приморский край, Россия) (140 км)

Пояснения к столбцам:

Ветер - указаны скорость ветра в м/с - средняя за 10 мин, порывы в срок и между сроками (в фигурных скобках) и направление, откуда дует ветер: С - северный, СВ - северо-восточный, В - восточный, ЮВ - юго-восточный, Ю - южный, ЮЗ - юго-западный, З - западный, СЗ - северо-западный.
Видимость - горизонтальная дальность видимости в метрах или километрах. При видимости от 1 до 10 км при отсутствии осадков обычно наблюдается дымка, при ухудшении видимости до 1 км и менее - туман. В сухую погоду видимость может ухудшаться дымом, пылью или мглою.
Явления - указаны атмосферные явления, наблюдавшиеся в срок или в последний час перед сроком; фигурными скобками обозначены явления, наблюдавшиеся между сроками (за 1-3 часа до срока); квадратными скобками обозначены град или гололедные отложения с указанием их диаметра в мм.
Облачность - указаны через наклонную черту общая и нижняя облачность в баллах и высота нижней границы облаков в метрах; квадратными скобками обозначены формы облаков: Ci - перистые, Cs - перисто-слоистые, Cc - перисто-кучевые, Ac - высококучевые, As - высокослоистые, Sc - слоисто-кучевые, Ns - слоисто-дождевые, Cu - кучевые, Cb - кучево-дождевые. Подробнее классификацию облаков см. в Атласе облаков (PDF).
T - Температура воздуха - температура, измеренная на высоте 2 м над землей.
Td - Температура точки росы - температура, при понижении до которой содержащийся в воздухе водяной пар достигнет насыщения.
f - Относительная влажность воздуха - влажноcть воздуха, измеренная на высоте 2 м над землей.
Te - Эффективная температура - температура, которую ощущает одетый по сезону человек в тени. Характеристика душности погоды. При расчете учитывается влияние влажности воздуха и скорости ветра на теплоощущения человека.
Tes - Эффективная температура на солнце - температура, которую ощущает человек, с поправкой на солнечный нагрев. Характеристика знойности погоды. Зависит от высоты солнца над горизонтом, облачности и скорости ветра. Ночью, в пасмурную погоду, а также при ветре 12 м/с и более поправка равна нулю.
P - Атмосферное давление - приведенное к уровню моря атмосферное давление.
Po - Атмосферное давление - измеренное на уровне метеостанции атмосферное давление.
Tmin - Минимальная температура - минимум температуры воздуха на высоте 2 м над землей.
Tmax - Максимальная температура - максимум температуры воздуха на высоте 2 м над землей.
R - Количество осадков - Количество выпавших осадков за период времени, мм. При наведении курсора мыши на число - период времени, за который выпало указанное количество осадков.
R24 - Количество осадков - Количество выпавших осадков за 24 часа, мм.
S - Снежный покров - Высота снежного покрова, см. При наведении курсора мыши на число - состояние снежного покрова и степень покрытия местности в баллах.